Tracking 18840 objects as of 18-November-2017
HD Live streaming from Space Station
objects crossing your sky now

FENGYUN 1C DEB

Track FENGYUN 1C DEB now!
10-day predictions


NORAD ID: 31286
Int'l Code: 1999-025BNU
Perigee: 821.8 km
Apogee: 977.7 km
Inclination: 100.9 °
Period: 102.8 minutes
Semi major axis: 7270 km
RCS: 0.0136 m2 (small)
Launch date: May 10, 1999
Source: People's Republic of China (PRC)
Launch site: Taiyaun Space Center, China (TSC)

Note: This is SATELLITE DEBRIS
aabbcc
Your satellite tracking list
Your tracking list is empty




NASA's NSSDC Master Catalog

Two Line Element Set (TLE):
1 31286U 99025BNU 17321.16830800 +.00001903 +00000-0 +12605-2 0  9994
2 31286 100.8726 303.3254 0107235 065.7321 295.4995 14.00336615225986
Source of the keplerian elements: AFSPC